Station CFWM1 - 8411060 - Cutler Farris Wharf, ME Image indicating link to RSS feed of recent meteorological observations for station CFWM1


Conditions at CFWM1 as of
(8:00 pm EDT on 06/21/2024)
0000 GMT on 06/22/2024:
     

Click on the graph icon in the table below to see a time series plot of the last five days of that observation.

5-day plot - Wind Speed Wind Speed (WSPD): 0.0 kts
5-day plot - Wind Gust Wind Gust (GST): 0.0 kts
5-day plot - Air Temperature Air Temperature (ATMP): 63.5 °F
5-day plot - Water Temperature Water Temperature (WTMP): 48.2 °F
5-day plot - Wind Speed at 10 Meters Wind Speed at 10 meters (WSPD10M): 0.0 kts
5-day plot - Wind Speed at 20 Meters Wind Speed at 20 meters (WSPD20M): 0.0 kts
5-day plot -  Wind Speed, Wind Gust and Atmospheric Pressure Combined plot of Wind Speed, Gust, and Air Pressure
NOS Water Level Observation Network Water Level
Previous observations
TIME
(EDT)
5-day plot - Wind Direction
WDIR
 
5-day plot - Wind Speed
WSPD
kts
5-day plot - Wind Gust
GST
kts
5-day plot - Wave Height
WVHT
ft
5-day plot - Dominant Wave Period
DPD
sec
5-day plot - Average Wave Period
APD
sec
5-day plot - Mean Wave Direction
MWD
 
5-day plot - Atmospheric Pressure
PRES
in
5-day plot - Pressure Tendency
PTDY
in
5-day plot - Air Temperature
ATMP
°F
5-day plot - Water Temperature
WTMP
°F
5-day plot - Dew Point
DEWP
°F
5-day plot - Salinity
SAL
psu
5-day plot - Visibility
VIS
nmi
5-day plot - Tide (above MLLW)
TIDE
ft
2024-06-21 07:54 pm- 0.0 2.9------ 66.2 48.2----
2024-06-21 07:48 pmESE 1.0 1.9----30.11- 66.6 48.4----
2024-06-21 07:42 pm NE 1.0 4.1----30.11- 67.3 48.2----
2024-06-21 07:36 pm N 1.0 1.9----30.11- 67.8 48.4----
2024-06-21 07:30 pm- 0.0 1.0----30.11- 67.6 48.2----
2024-06-21 07:24 pm- 0.0 1.9----30.11- 67.6 48.2----
2024-06-21 07:00 pmWNW 1.0 1.9----30.11-0.01 67.6 48.6----
2024-06-21 06:54 pm- 0.0 2.9----30.11- 67.8 48.9----
2024-06-21 06:48 pm-------30.11- 67.5 49.1----
2024-06-21 06:42 pm-------30.10- 67.6 49.5----
2024-06-21 06:36 pm-------30.11- 68.0 50.0----
2024-06-21 06:30 pmWNW 4.1 5.1----30.11- 68.5 50.4----
2024-06-21 06:24 pm NW 2.9 5.1----30.10- 68.2 50.7----
2024-06-21 06:18 pm W 4.1 5.1----30.11- 68.5 51.3----
2024-06-21 06:12 pm W 4.1 4.1----30.11- 69.3 51.8----
2024-06-21 06:06 pmNNW 1.9 4.1----30.11- 69.6 51.8----
2024-06-21 06:00 pm W 2.9 5.1----30.11-0.02 68.7 52.2----
2024-06-21 05:54 pm W 4.1 6.0----30.10- 70.0 52.3----
2024-06-21 05:48 pm W 5.1 6.0----30.09- 70.3 52.3----
2024-06-21 05:42 pmWSW 1.9 2.9----30.09- 70.5 52.3----
2024-06-21 05:36 pm W 2.9 4.1----30.09- 70.9 52.3----
2024-06-21 05:30 pmWNW 1.9 5.1----30.09- 70.7 52.3----
2024-06-21 05:24 pm W 4.1 7.0----30.09- 70.2 52.3----
2024-06-21 05:18 pm SW 5.1 8.9----30.09- 70.0 52.3----
2024-06-21 05:12 pm SW 6.0 8.9----30.09- 70.2 52.3----
2024-06-21 05:06 pm SW 8.0 8.0----30.09- 71.2 52.3----
2024-06-21 05:00 pm SW 5.1 7.0----30.10-0.04 72.3 52.3----
2024-06-21 04:54 pmSSW 4.1 5.1----30.10- 72.3 52.2----
2024-06-21 04:48 pm SW 2.9 5.1----30.09- 72.0 52.2----
2024-06-21 04:42 pmWSW 5.1 7.0----30.10- 72.5 52.2----
2024-06-21 04:36 pm SW 6.0 7.0----30.10- 72.7 52.0----
2024-06-21 04:30 pmWSW 5.1 8.0----30.11- 72.7 52.0----
2024-06-21 04:24 pm SW 4.1 5.1----30.11- 72.5 51.8----
2024-06-21 04:18 pmWSW 5.1 7.0----30.11- 72.5 51.8----
2024-06-21 04:12 pm SW 6.0 7.0----30.11- 72.0 51.6----
2024-06-21 04:06 pm SW 5.1 6.0----30.11- 72.0 51.4----
2024-06-21 04:00 pmWSW 4.1 8.0----30.11-0.03 72.1 51.3----
2024-06-21 03:54 pmWSW 5.1 7.0----30.12- 71.8 51.3----
2024-06-21 03:48 pmWSW 5.1 6.0----30.12- 71.1 51.1----
2024-06-21 03:42 pm SW 5.1 8.0----30.12- 71.1 50.9----
2024-06-21 03:36 pmSSW 5.1 8.9----30.12- 71.2 50.9----
2024-06-21 03:30 pmSSW 6.0 9.9----30.12- 70.9 50.7----
2024-06-21 03:24 pmSSW 7.0 8.9----30.12- 71.4 50.4----
2024-06-21 03:18 pm SW 6.0 8.9----30.13- 70.9 50.0----
2024-06-21 03:12 pmSSW 6.0 8.9----30.12- 69.6 49.6----
2024-06-21 03:06 pm S 1.0 8.0----30.13- 71.1 49.5----
2024-06-21 03:00 pmSSW 7.0 11.1----30.13-0.03 70.2 49.3----
2024-06-21 02:54 pm SW 8.9 11.1----30.13- 70.7 48.9----
2024-06-21 02:48 pmSSW 8.0 8.9----30.13- 70.9 48.4----
2024-06-21 02:42 pm S 2.9 8.0----30.13- 71.8 48.4----
2024-06-21 02:36 pmSSW 6.0 9.9----30.14- 71.4 48.2----
2024-06-21 02:30 pmSSW 8.0 11.1----30.13- 70.9 48.2----
2024-06-21 02:24 pmSSW 8.0 8.9----30.13- 71.1 48.2----
2024-06-21 02:18 pm- 0.0 9.9----30.14- 72.7 48.2----
2024-06-21 02:12 pmSSW 8.9 9.9----30.14- 71.6 48.2----
2024-06-21 02:06 pm S 1.0 8.9----30.14- 72.3 48.0----
2024-06-21 02:00 pmSSW 8.0 9.9----30.14-0.02 70.9 48.0----
2024-06-21 01:54 pm- 0.0 1.9----30.14- 73.9 47.8----
2024-06-21 01:48 pm- 0.0 4.1----30.14- 73.9 47.8----
2024-06-21 01:42 pm SE 1.9 4.1----30.14- 73.4 47.8----
2024-06-21 01:36 pmESE 1.0 2.9----30.14- 73.6 47.7----
2024-06-21 01:30 pm- 0.0 1.9----30.14- 73.6 47.7----
2024-06-21 01:24 pm- 0.0 2.9----30.14- 72.9 47.7----
2024-06-21 01:18 pmSSE 1.0 4.1----30.14- 72.1 47.5----
2024-06-21 01:12 pm SE 2.9 6.0----30.15- 72.0 47.5----
2024-06-21 01:06 pm SE 1.0 5.1----30.14- 69.1 47.5----
2024-06-21 01:00 pmSSE 1.0 2.9----30.14-0.03 69.8 47.5----
2024-06-21 12:54 pmSSE 1.9 8.0----30.14- 70.7 47.5----
2024-06-21 12:48 pm SE 5.1 8.9----30.14- 71.2 47.5----
2024-06-21 12:42 pmSSE 1.9 8.9----30.14- 71.1 47.5----
2024-06-21 12:36 pmSSE 2.9 9.9----30.14- 71.8 47.5----
2024-06-21 12:30 pm SE 6.0 8.9----30.15- 70.7 47.5----
2024-06-21 12:24 pmSSE 2.9 8.9----30.15- 70.2 47.5----
2024-06-21 12:18 pm SE 5.1 8.9----30.15- 71.2 47.5----
2024-06-21 12:12 pm SE 5.1 9.9----30.15- 71.8 47.5----
2024-06-21 12:06 pm SE 5.1 6.0----30.15- 69.4 47.5----
2024-06-21 12:00 pm S 1.9 5.1----30.16-0.01 69.6 47.5----
2024-06-21 11:54 amSSE 1.0 9.9----30.16- 71.8 47.5----
2024-06-21 11:48 am SE 6.0 8.9----30.15- 72.7 47.5----
2024-06-21 11:42 am SE 2.9 8.9----30.16- 72.1 47.3----
2024-06-21 11:36 amESE 4.1 7.0----30.16- 74.3 47.3----
2024-06-21 11:30 am N 1.9 9.9----30.16- 75.9 47.3----
2024-06-21 11:24 am NE 6.0 9.9----30.16- 75.9 47.3----
2024-06-21 11:18 amWSW 4.1 8.0----30.16- 72.5 47.3----
2024-06-21 11:12 am NE 5.1 11.1----30.16- 75.2 47.3----
2024-06-21 11:06 am NE 5.1 11.1----30.16- 75.6 47.3----
2024-06-21 11:00 amENE 6.0 13.0----30.16+0.00 75.4 47.3----
2024-06-21 10:54 am NE 5.1 8.0----30.16- 75.7 47.5----
2024-06-21 10:48 am NE 5.1 8.0----30.16- 75.2 47.5----
2024-06-21 10:42 amENE 5.1 8.9----30.16- 74.3 47.5----
2024-06-21 10:36 amENE 2.9 7.0----30.16- 74.7 47.5----
2024-06-21 10:30 amENE 5.1 8.9----30.17- 74.1 47.5----
2024-06-21 10:24 am E 6.0 9.9----30.17- 73.4 47.5----
2024-06-21 10:18 amENE 2.9 8.0----30.17- 72.7 47.5----
2024-06-21 10:12 amENE 2.9 7.0----30.17- 72.3 47.5----
2024-06-21 10:06 amENE 4.1 8.0----30.17- 72.1 47.5----
2024-06-21 10:00 amNNE 4.1 7.0----30.17+0.02 72.0 47.5----
2024-06-21 09:54 am NE 4.1 8.0----30.17- 72.1 47.5----
2024-06-21 09:48 am NE 2.9 6.0----30.17- 72.0 47.5----
2024-06-21 09:42 amNNE 4.1 8.0----30.17- 72.0 47.5----
2024-06-21 09:36 amNNE 5.1 9.9----30.17- 72.1 47.5----
2024-06-21 09:30 am NE 4.1 12.0----30.17- 72.3 47.5----
2024-06-21 09:24 amENE 7.0 8.9----30.17- 72.0 47.5----
2024-06-21 09:18 am NE 4.1 8.9----30.16- 71.8 47.5----
2024-06-21 09:12 am NE 2.9 9.9----30.16- 71.8 47.5----
2024-06-21 09:06 amENE 5.1 6.0----30.16- 71.6 47.5----
2024-06-21 09:00 am NE 4.1 8.9----30.17+0.04 71.4 47.3----
2024-06-21 08:54 am NE 4.1 7.0----30.17- 71.4 47.3----
2024-06-21 08:48 am NE 2.9 6.0----30.16- 70.7 47.3----
2024-06-21 08:42 am NE 1.9 8.9----30.16- 70.2 47.3----
2024-06-21 08:36 am NE 2.9 8.0----30.16- 70.0 47.3----
2024-06-21 08:30 am NE 5.1 8.9----30.16- 70.0 47.3----
2024-06-21 08:24 amNNE 2.9 5.1----30.16- 70.0 47.3----
2024-06-21 08:18 am NE 4.1 7.0----30.16- 70.0 47.3----
2024-06-21 08:12 amNNE 1.9 6.0----30.16- 70.0 47.3----
2024-06-21 08:06 am NE 1.9 6.0----30.15- 69.8 47.3----
2024-06-21 08:00 amNNE 1.9 6.0----30.15+0.05 69.4 47.3----
2024-06-21 07:54 am NE 1.0 5.1----30.15- 69.4 47.5----
2024-06-21 07:48 am- 0.0 5.1----30.14- 69.3 47.5----
2024-06-21 07:42 amENE 2.9 7.0----30.14- 69.3 47.5----
2024-06-21 07:36 amENE 2.9 5.1----30.14- 69.3 47.5----
2024-06-21 07:30 amENE 1.9 7.0----30.14- 69.4 47.5----
2024-06-21 07:24 am NE 1.9 8.0----30.15- 69.4 47.5----
2024-06-21 07:18 amNNE 1.9 7.0----30.15- 69.3 47.5----
2024-06-21 07:12 amNNE 2.9 5.1----30.15- 69.3 47.5----
2024-06-21 07:06 amNNE 2.9 7.0----30.15- 69.1 47.5----
2024-06-21 07:00 am N 2.9 4.1----30.15+0.06 68.7 47.5----
2024-06-21 06:54 am N 2.9 6.0----30.14- 68.5 47.7----
2024-06-21 06:48 amNNE 1.9 5.1----30.14- 68.2 48.0----
2024-06-21 06:42 am N 2.9 8.0----30.14- 68.2 48.4----
2024-06-21 06:36 am N 2.9 6.0----30.14- 68.2 48.7----
2024-06-21 06:30 am N 2.9 7.0----30.14- 68.0 48.9----
2024-06-21 06:24 am N 2.9 6.0----30.13- 67.6 49.1----
2024-06-21 06:18 am N 4.1 6.0----30.13- 67.6 49.3----
2024-06-21 06:12 am N 1.9 6.0----30.12- 67.5 49.3----
2024-06-21 06:06 am N 2.9 6.0----30.12- 67.5 49.5----
2024-06-21 06:00 am N 2.9 5.1----30.12+0.04 67.3 49.5----
2024-06-21 05:54 am N 2.9 4.1----30.12- 67.1 49.5----
2024-06-21 05:48 am N 1.9 5.1----30.12- 67.1 49.5----
2024-06-21 05:42 am N 2.9 4.1----30.11- 66.9 49.5----
2024-06-21 05:36 am N 1.9 4.1----30.11- 66.9 49.5----
2024-06-21 05:30 am N 1.0 5.1----30.11- 67.1 49.6----
2024-06-21 05:24 am N 2.9 5.1----30.11- 67.1 49.6----
2024-06-21 05:18 am N 2.9 6.0----30.11- 67.1 49.6----
2024-06-21 05:12 am N 1.9 5.1----30.11- 66.9 49.6----
2024-06-21 05:06 am N 2.9 6.0----30.11- 67.3 49.5----
2024-06-21 05:00 am N 1.9 4.1----30.11+0.03 67.3 49.5----
2024-06-21 04:54 am N 1.9 5.1----30.11- 67.5 49.3----
2024-06-21 04:48 am N 2.9 5.1----30.10- 67.6 49.3----
2024-06-21 04:42 am N 2.9 5.1----30.10- 67.8 49.1----
2024-06-21 04:36 am N 2.9 5.1----30.10- 67.8 49.1----
2024-06-21 04:30 am N 1.9 4.1----30.10- 68.0 48.9----
2024-06-21 04:24 am N 2.9 5.1----30.09- 68.2 48.9----
2024-06-21 04:18 am N 1.9 4.1----30.09- 68.2 48.7----
2024-06-21 04:12 am N 1.9 4.1----30.09- 68.4 48.7----
2024-06-21 04:06 am N 1.9 4.1----30.09- 68.2 48.6----
2024-06-21 04:00 amNNW 1.9 2.9----30.09+0.02 68.4 48.6----
2024-06-21 03:54 am N 1.0 2.9----30.09- 68.5 48.6----
2024-06-21 03:48 amNNW 1.9 2.9----30.09- 68.5 48.6----
2024-06-21 03:42 am N 1.0 2.9----30.09- 69.1 48.4----
2024-06-21 03:36 am N 1.9 2.9----30.09- 69.4 48.4----
2024-06-21 03:30 am N 1.9 4.1----30.09- 69.8 48.4----
2024-06-21 03:24 am N 1.9 4.1----30.09- 70.2 48.2----
2024-06-21 03:18 am N 1.9 4.1----30.09- 70.7 48.2----
2024-06-21 03:12 am N 2.9 8.0----30.08- 71.1 48.0----
2024-06-21 03:06 am N 4.1 7.0----30.08- 71.6 48.0----
2024-06-21 03:00 am N 5.1 8.0----30.08+0.02 71.8 48.0----
2024-06-21 02:54 am N 4.1 7.0----30.08- 72.0 47.8----
2024-06-21 02:48 am N 4.1 6.0----30.08- 72.0 47.8----
2024-06-21 02:42 am N 2.9 5.1----30.08- 71.8 47.7----
2024-06-21 02:36 am N 1.9 5.1----30.08- 71.8 47.5----
2024-06-21 02:30 amNNW 2.9 4.1----30.08- 72.0 47.5----
2024-06-21 02:24 am N 2.9 5.1----30.08- 72.0 47.5----
2024-06-21 02:18 am N 2.9 5.1----30.08- 72.0 47.5----
2024-06-21 02:12 amNNW 4.1 5.1----30.08- 72.1 47.3----
2024-06-21 02:06 amNNW 2.9 5.1----30.08- 72.0 47.3----
2024-06-21 02:00 am N 2.9 5.1----30.08+0.00 72.1 47.3----
2024-06-21 01:54 am N 4.1 6.0----30.07- 72.1 47.3----
2024-06-21 01:48 am N 2.9 6.0----30.08- 72.1 47.3----
2024-06-21 01:42 am N 2.9 8.0----30.08- 72.1 47.3----
2024-06-21 01:36 am N 4.1 7.0----30.08- 72.1 47.3----
2024-06-21 01:30 am N 4.1 7.0----30.08- 72.1 47.3----
2024-06-21 01:24 amNNW 4.1 6.0----30.08- 72.1 47.3----
2024-06-21 01:18 amNNW 4.1 7.0----30.08- 72.1 47.3----
2024-06-21 01:12 amNNW 4.1 6.0----30.08- 72.1 47.3----
2024-06-21 01:06 amNNW 5.1 6.0----30.07- 72.1 47.3----
2024-06-21 01:00 am N 4.1 8.0----30.07-0.02 72.3 47.3----
2024-06-21 12:54 am N 6.0 8.9----30.07- 72.5 47.3----
2024-06-21 12:48 am N 6.0 11.1----30.07- 72.5 47.3----
2024-06-21 12:42 am N 5.1 8.9----30.07- 72.5 47.3----
2024-06-21 12:36 amNNW 5.1 8.9----30.07- 72.3 47.3----
2024-06-21 12:30 am N 5.1 8.9----30.07- 72.3 47.3----
2024-06-21 12:24 am N 5.1 8.9----30.07- 72.3 47.3----
2024-06-21 12:18 am N 4.1 9.9----30.07- 72.5 47.3----
2024-06-21 12:12 amNNW 6.0 9.9----30.06- 72.5 47.3----
2024-06-21 12:06 am N 6.0 8.9----30.07- 72.7 47.3----
2024-06-21 12:00 am N 5.1 8.0----30.06-0.02 73.0 47.3----
2024-06-20 11:54 pm N 5.1 8.9----30.06- 73.2 47.3----
2024-06-20 11:48 pmNNW 6.0 12.0----30.06- 73.4 47.3----
2024-06-20 11:42 pm N 5.1 9.9----30.06- 73.4 47.3----
2024-06-20 11:36 pm N 6.0 8.9----30.06- 73.4 47.3----
2024-06-20 11:30 pm N 6.0 8.0----30.07- 73.2 47.3----
2024-06-20 11:24 pm N 5.1 8.0----30.07- 73.0 47.3----
2024-06-20 11:18 pmNNW 5.1 8.0----30.07- 72.9 47.3----
2024-06-20 11:12 pmNNW 5.1 8.9----30.07- 72.9 47.3----
2024-06-20 11:06 pmNNW 5.1 9.9----30.07- 73.0 47.3----
2024-06-20 11:00 pmNNW 5.1 8.9----30.08+0.00 72.7 47.3----
2024-06-20 10:54 pm NW 5.1 8.9----30.08- 72.3 47.3----
2024-06-20 10:48 pm NW 5.1 8.0----30.08- 72.3 47.3----
2024-06-20 10:42 pm NW 5.1 8.0----30.08- 72.3 47.3----
2024-06-20 10:36 pm NW 5.1 9.9----30.08- 72.3 47.3----
2024-06-20 10:30 pm NW 7.0 11.1----30.08- 72.3 47.3----
2024-06-20 10:24 pm NW 6.0 7.0----30.09- 71.6 47.3----
2024-06-20 10:18 pm NW 4.1 8.0----30.09- 71.2 47.3----
2024-06-20 10:12 pm NW 2.9 8.0----30.09- 71.1 47.3----
2024-06-20 10:06 pmNNW 2.9 8.0----30.09- 71.1 47.3----
2024-06-20 10:00 pmNNW 5.1 8.9----30.09-0.02 71.1 47.3----
2024-06-20 09:54 pm NW 5.1 8.9----30.09- 70.9 47.3----
2024-06-20 09:48 pm NW 6.0 8.0----30.09- 70.5 47.3----
2024-06-20 09:42 pm NW 5.1 8.0----30.09- 70.5 47.3----
2024-06-20 09:36 pm NW 6.0 9.9----30.09- 70.2 47.3----
2024-06-20 09:30 pmWNW 6.0 8.9----30.08- 69.8 47.3----
2024-06-20 09:24 pmWNW 6.0 8.9----30.08- 69.3 47.3----
2024-06-20 09:18 pmWNW 5.1 8.0----30.08- 69.3 47.3----
2024-06-20 09:12 pmWNW 5.1 8.9----30.08- 69.1 47.3----
2024-06-20 09:06 pmWNW 7.0 8.9----30.08- 69.4 47.3----
2024-06-20 09:00 pmWNW 6.0 9.9----30.08+0.04 69.4 47.5----
2024-06-20 08:54 pmWNW 6.0 8.0----30.08- 69.3 47.5----
2024-06-20 08:48 pmWNW 5.1 8.9----30.08- 69.6 47.5----
2024-06-20 08:42 pmWNW 5.1 8.9----30.08- 70.2 47.7----
2024-06-20 08:36 pmWNW 6.0 9.9----30.07- 70.7 47.7----
2024-06-20 08:30 pmWNW 6.0 8.9----30.07- 71.2 47.7----
2024-06-20 08:24 pmWNW 5.1 8.0----30.07- 71.2 47.7----
2024-06-20 08:18 pmWNW 5.1 6.0----30.07- 70.7 47.5----
2024-06-20 08:12 pmWNW 2.9 5.1----30.07- 70.0 47.5----
2024-06-20 08:06 pm W 2.9 4.1----30.08- 70.3 47.5----
2024-06-20 08:00 pmNNE 1.9 5.1----30.08+0.04 71.2 47.5----
2024-06-20 07:54 pm NE 2.9 4.1----30.08- 71.2 47.5----